Погода в Большом Доре

Россия / Костромская область     58°20′34″N   41°22′58″E
темп.,
°C
ветер,
м/с
пор.,
м/с
влажн.,
%
обл.,
%
осадки,
мм/ч
давл.,
гПа
погр.,
м
13 июня, вс
вс1300:00+14вюв3895100 0.0 1008202
03:00+13вюв379887 0.0 1008171
06:00+16юв369046 0.0 1007264
09:00+20ююв456926 0.1 1007951
12:00+22ю466459 1.4 10061420
15:00+22ю346994 3.5 10071192
18:00+20ю249098 3.0 1007165
21:00+17ююз1191100 5.9 100711
14 июня, пн
пн1400:00+16з1194100 3.5 100814
03:00+14зюз2297100 3.5 101022
06:00+16зюз239485 0.0 1011122
09:00+20зюз3481100 0.8 1012348
12:00+23юз136783 2.6 10131125
15:00+19юз247997 3.0 101388
18:00+23юз266799 0.1 1013375
21:00+19юз257480 0.1 101398
15 июня, вт
вт1500:00+16юз119068 0.0 101411
03:00+15з11955 0.0 101411
06:00+18зюз118429 0.0 1014138
09:00+23зюз12620 0.0 1013658
12:00+25ююз24542 0.3 10121616
15:00+26ююз454999 0.3 10102204
18:00+22юз368049 0.7 1009229
21:00+18з229282 2.9 100922
16 июня, ср
ср1600:00+16юз1193100 0.0 100911
03:00+16сз119381 0.0 100811
06:00+18зсз139011 0.0 1008143
09:00+20сз466499 0.0 1009642
12:00+21сз675551 0.0 10101501
15:00+21ссз684498 0.0 10112387
18:00+20сз48462 0.0 10121951
21:00+15сз311590 0.0 1014316
17 июня, чт
чт1700:00+11сз38690 0.0 1017146
03:00+9сз39740 0.0 1019190
06:00+12ссз38660 0.0 1020254
09:00+18сз35495 0.0 1021917
12:00+21сз57375 0.0 10222149
15:00+21ссз57362 0.0 10222035
18:00+20сз46480 0.0 10231003
21:00+14зсз36680 0.0 1024104